Location: Mascot Post Office (historical)
(40.2645°N, 99.5462°W)
Time: 00:30:21
(UTC+00:00)

NOSS 3-4 (C) - Pass Details

Date: 29 October 2020
Orbit: 884 x 1328 km, 63.4° (Epoch: 28 November)

Event Time Altitude Azimuth Distance (km) Brightness Sun altitude
Rises 03:40:04 0° 319° (NW) 3,909 7.3 -45.7°
Reaches altitude 10° 03:42:47 10° 312° (NW) 3,013 6.6 -46.2°
Enters shadow 03:45:58 26° 295° (WNW) 2,114 5.6 -46.7°
